Погода в Кортина-д`Ампеццо

Италия     46°32′06″N   12°08′17″E
темп.,
°C
ветер,
м/с
пор.,
м/с
влажн.,
%
обл.,
%
осадки,
мм/ч
давл.,
гПа
погр.,
м
17 сентября, пт
пт1723:00+11сз1199100 10.1 101590
02:00+10с2398100 15.8 1015106
05:00+9с229799 1.1 101476
08:00+9с2396100 1.3 101493
11:00+12с228167 0.1 1013550
14:00+15св017161 2.1 1012912
17:00+14ююз117630 1.2 1011482
20:00+9з119113 1.7 101410
18 сентября, сб
сб1823:00+7ссз229324 0.1 101620
02:00+7ссз229240 0.1 101529
05:00+6ссз229292 0.0 101531
08:00+7ссз128762 0.0 101551
11:00+14ююв116455 0.0 1013896
14:00+14ю226563 0.2 1013996
17:00+13ю227748 0.2 1012653
20:00+10ю129870 0.5 101489
19 сентября, вс
вс1923:00+10ююв019696 0.1 101530
02:00+9ю119773 0.2 101428
05:00+9ююз119898 0.3 101334
08:00+9ю119769 0.4 1013113
11:00+10ю1292100 0.4 1012374
14:00+10ююв2396100 2.3 1012397
17:00+10ююв229593 3.0 1011303
20:00+8ююв119845 4.8 101248
20 сентября, пн
пн2023:00+8зсз009782 0.5 101317
02:00+8ссз119783 1.2 101433
05:00+7с229692 0.3 101492
08:00+7с1194100 0.4 101463
11:00+10юв118690 2.0 1014600
14:00+9ююв2287100 8.5 1013371
17:00+7всв229898 8.1 1015182
20:00+6ссв2297100 9.6 1017124
21 сентября, вт
вт2123:00+5с2396100 0.0 101966
02:00+4ссз229428 0.0 102041
05:00+3ссз23935 0.0 102138
08:00+4ссз22915 0.0 102250
11:00+11юв11585 0.0 1021991
14:00+12ю2157100 0.0 10201068
17:00+10ю2274100 0.1 1021505
20:00+7ююз119492 0.3 102111